User: anonymous   Login
Location: Chilton Park
(37.7711°N, 100.0276°W)
Time: 01:51:57
(UTC+00:00)
Language:

NOAA 16 DEB - Orbit

View from above orbital plane
View from above orbital plane
View from above satellite
View from above satellite

Ground track
Ground track

The orbit data is extracted from the following two-line orbital elements,

1 41405U 00055KJ  22279.21503801  .00006545  00000-0  32961-2 0  9999
2 41405  98.8744   4.8309 0014036 333.2361  26.8087 14.16633684341938
Epoch (UTC): 06 October 2022 05:09:39
Eccentricity: 0.0014036
inclination: 98.8744°
perigee height: 826 km
apogee height: 847 km
right ascension of ascending node: 4.8309°
argument of perigee: 333.2361°
revolutions per day: 14.16633684
mean anomaly at epoch: 26.8087°
orbit number at epoch: 34193

The dashed part of the orbit path shows where the satellite is in the earth's shadow,  

DLR